"Pseudo-MPEC" for IVnr1MK

Created 2021 Sep 17 8:07:17 UT using Find_Orb

Click here for an explanation of pseudo-MPECs

 
 Astrometry: 
     IVnr1MK !C2021 09 050+@ot,RaVxoR8$ihUv/60b('b/G#sRC5pm/EK3wt?jy?Ygt/Q1?9W84
     IVnr1MK !C2021 09 05mGVnYP!#eKJO(oAstrometryT;GN47'TpI(%mxmayI=H)GI`3N0VW84
     IVnr1MK !C2021 09 05YpKx`=Z:g)vF]jyP+R)J#C7RSSbf#4mUtd5h,rRU.Q,m*`p^CtfeW84
     IVnr1MK !C2021 09 05Hs0_uD,*rqt`#l%/g;b[yH+]kYyWDG*2ikVvuOmoiJnY6tZKs(01W84
     IVnr1MK !C2021 09 05Mid^gfh)xWtTSredacted;I]?M$5clicku^-e2g6`oFqBi[V!n_yW84
     IVnr1MK !C2021 09 05%3.3]k3VrlEHPR3?$hJMd:cjJd8ddqwL*4qDDdilnuY0:]g(bnlVW84
     IVnr1MK !C2021 09 05W6v(j:Bf*0]U'fxMZtaEhDfq`Z=l.Ch6g(jcHut_Q)A[nR//QxT=W84
     IVnr1MK !C2021 09 05I:xf1jt.2eu:U9*gU\pvT+E`;T89bUb#S(hw#v/BK#wd?\QO!KL-W84
     IVnr1MK !C2021 09 05p2H%$agZ#Dg+2?b.N*Z,\x%PT6+b8PN`/-!wg$u.0.'rpVW*9)A1W84
     IVnr1MK !C2021 09 053vGVc1,7KxMme+hNoP/BGeyQhere[84#I!yJtU3+;$01#]XBiGJ8W84
     IVnr1MK !C2021 09 05wZZxyY*[Kr^Nt7xHFe-;j=MGU+ix,n6^Nq\M*@.V9F^g]75]vyF9W84
     IVnr1MK !C2021 09 05LGn1klr_]V3Tl:83#HLI-9aD(D$C!qIH@59f-RI=eWcZpv]`KoGIW84
     IVnr1MK !C2021 09 05wF$UCYMG[m\O3C']:G:#'0Td)V$.LL2#L63oI:*-RY@O;WibrGi\W84
     IVnr1MK !C2021 09 05!-?11N]7`;=PN3yh)]O\=Ie2[Ut-=iW$chi7[wAx'I1ko=tQZwFXW84
     IVnr1MK !C2021 09 05K@e'7/^;rM+/-f`NdAQP!vEpPSmFyL@kSWTlMLs25xO.p_Fq5E6+W84
     IVnr1MK !C2021 09 05uCRvBXHb$Ut2G!9t3NeX.'NG(\MjA#3NyU`!rVFQXGjRZr-EP;Y=W84
     IVnr1MK !C2021 09 05bYS6#O9j#lE=mq\#=g5WhROuQZj29atLo0)D#s!orjT@aAUZxw2(W84
     IVnr1MK !C2021 09 05Ldb=vUXJ'M50forK8)Lb!E$EyDauTAsQSUXq=uGr-rS5-c`yFgafW84
     IVnr1MK !C2021 09 05@G?.:r)4$]C\.a103r(A-i*HB+5^-!$.tB=5o#M]FcFatVOl8pT[W84
     IVnr1MK !C2021 09 05T#_k;lF?!@rUerX80YU0@OfoexplanationuXe)9@+pYP2Lv+'=!W84
     IVnr1MK !C2021 09 05SLf%_X53y^e.lwMu6G[a'es-b$4YZA_FFDY6bF5!cUc/R6^C^s*eW84
     IVnr1MK !C2021 09 05_#rG[`Z;'?MucuS[^.DG`[,)s%g^dj0eJyuQ?kX]@B=OS]wHw2.[W84
     IVnr1MK !C2021 09 05+3HCRmS=sW=H.6:gMZcjv8CQOuSL-a-mNV6#DxP!ox0_lQ2'nV#,W84
     IVnr1MK !C2021 09 05T.[O;a6o)+%@e(c2?20)qWZ)^N:;4nJIwe13BZqM97lAU0-NBqX:W84
     IVnr1MK !C2021 09 05Nlw2u7Nc_R3\qxp9XA@qX3lgwSo?JM3yt1eomXbEED=Cn0U5+GrLW84
     IVnr1MK !C2021 09 05ho%^4PeO_g:Tibg+-2*$VRiehtliFX;Dp)N[_#ALqO3!AO+y_^BJW84
     IVnr1MK !C2021 09 05ppoi'1gQ;;3r.'C]wWxR)*+hBNlHDcqaRSL?*AZqB,Y#O=,qx^\DW84
     IVnr1MK !C2021 09 05h$rZwRWO+^Hi%\;!ht$k$$bW=b9aPrYeROb*aliE:3JQNL?P]n/bW84
     IVnr1MK !C2021 09 05VfY?Y@IQyh^(Qhiw24kE9BMebOoyw$;.DtM$:P/m?mvJ\eGnT8mmW84
     IVnr1MK !C2021 09 05[@XCIMv!,8/P2\T'fdt+WpUm\;job]P(;M,BI-N;Y(R3/Q)$cY06W84
     IVnr1MK !C2021 09 056+hc5KXWT?][4c@)r85Ux/PbEfh%KWB:(V9Uu180E.M?7EWUt$dJW84

Station data:
(W84) Cerro Tololo-DECam  (S30.169597 W70.806420)  Chile. 4.0-m f/2.87
   reflector + CCD.

Orbital elements:  IVnr1MK
   Perihelion 2021 Sep 8.237774 +/- 51.1534 TT =  5:42:23 (JD 2459465.737774)
Epoch 2021 Sep  5.0 TT = JDT 2459462.5   Earth MOID: 0.5438   Ju: 0.6985
M 359.42606009 +/- 17.595828        (J2000 ecliptic)          AutoNEOCP
n   0.17726372 +/- 0.19889          Peri.    0.07203 +/- 54.469922
a   3.13850481 +/- 2.34322          Node   347.99546 +/- 0.8471413
e   0.5058758 +/- 0.243836          Incl.   21.07863 +/- 8.5618577
P   5.56                   H 22.8   G  0.15   U 11.7  SR
q 1.55081092 +/- 0.341712    Q 4.72619871 +/- 31.8166
From 31 observations 2021 Sept. 5 (2.3 hr); mean residual 0".19
Residuals in arcseconds: 
210905 W84  .45-  .17+    210905 W84  .21+  .01+    210905 W84  .17+  .01-    
210905 W84  .10-  .11-    210905 W84  .03-  .03+    210905 W84  .06+  .13-    
210905 W84  .17-  .03-    210905 W84  .06+  .17-    210905 W84  .17+  .06-    
210905 W84  .27-  .09+    210905 W84  .03-  .04+    210905 W84  .24+  .02-    
210905 W84  .20-  .19+    210905 W84  .02+  .10-    210905 W84  .04-  .01-    
210905 W84  .13-  .01-    210905 W84  .24+  .02+    210905 W84  .06-  .14-    
210905 W84  .10+  .13-    210905 W84  .46+  .37-    210905 W84  .13-  .03+    
210905 W84  .03+  .14-    210905 W84  .04-  .21+    210905 W84  .02-  .18-    
210905 W84  .05+  .12+    210905 W84  .06+  .11-    210905 W84  .51-  .51+    
210905 W84  .34-  .44+    210905 W84  .15+  .02-    
210905 W84  .28+  .08-    210905 W84  .24+  .02-    

Ephemerides (geocentric):
Date (UTC) HH   RA              Dec         delta   r     elong  mag " sig PA
---- -- -- --  -------------   -----------  ------ ------ -----  --- ---- ---
2021 09 17 08  23 19 46.708   +02 01 32.27  .55059 1.5534 173.5 22.8  28d  20
2021 09 17 09  23 19 43.055   +02 02 49.78  .55065 1.5534 173.5 22.8  28d  20
2021 09 17 10  23 19 39.404   +02 04 07.27  .55072 1.5534 173.4 22.8  28d  19
2021 09 17 11  23 19 35.754   +02 05 24.73  .55079 1.5535 173.4 22.8  28d  19
2021 09 17 12  23 19 32.106   +02 06 42.16  .55085 1.5535 173.3 22.8  29d  19
2021 09 17 13  23 19 28.460   +02 07 59.56  .55092 1.5535 173.3 22.8  29d  19
2021 09 17 14  23 19 24.815   +02 09 16.93  .55099 1.5535 173.3 22.8  29d  19
2021 09 17 15  23 19 21.172   +02 10 34.27  .55106 1.5535 173.2 22.8  29d  19
2021 09 17 16  23 19 17.530   +02 11 51.58  .55112 1.5536 173.2 22.8  29d  19
2021 09 17 17  23 19 13.890   +02 13 08.87  .55119 1.5536 173.1 22.8  30d  19
2021 09 17 18  23 19 10.252   +02 14 26.12  .55126 1.5536 173.1 22.8  30d  18
2021 09 17 19  23 19 06.616   +02 15 43.34  .55133 1.5536 173.0 22.8  30d  18
2021 09 17 20  23 19 02.981   +02 17 00.53  .55140 1.5537 173.0 22.8  30d  18
2021 09 17 21  23 18 59.348   +02 18 17.69  .55147 1.5537 172.9 22.8  30d  18
2021 09 17 22  23 18 55.717   +02 19 34.82  .55154 1.5537 172.9 22.8  31d  18
2021 09 17 23  23 18 52.088   +02 20 51.92  .55162 1.5537 172.9 22.8  31d  18
2021 09 18 00  23 18 48.460   +02 22 08.99  .55169 1.5538 172.8 22.8  31d  18
2021 09 18 01  23 18 44.834   +02 23 26.03  .55176 1.5538 172.8 22.8  31d  18
2021 09 18 02  23 18 41.210   +02 24 43.04  .55183 1.5538 172.7 22.8  31d  18
2021 09 18 03  23 18 37.588   +02 26 00.02  .55191 1.5538 172.7 22.9  32d  18
2021 09 18 04  23 18 33.968   +02 27 16.96  .55198 1.5539 172.6 22.9  32d  18
2021 09 18 05  23 18 30.349   +02 28 33.88  .55205 1.5539 172.6 22.9  32d  17
2021 09 18 06  23 18 26.733   +02 29 50.76  .55213 1.5539 172.5 22.9  32d  17
2021 09 18 07  23 18 23.118   +02 31 07.61  .55220 1.5539 172.5 22.9  33d  17
2021 09 18 08  23 18 19.505   +02 32 24.43  .55228 1.5540 172.5 22.9  33d  17
2021 09 18 09  23 18 15.894   +02 33 41.22  .55235 1.5540 172.4 22.9  33d  17
2021 09 18 10  23 18 12.285   +02 34 57.98  .55243 1.5540 172.4 22.9  33d  17
2021 09 18 11  23 18 08.677   +02 36 14.70  .55250 1.5541 172.3 22.9  33d  17
2021 09 18 12  23 18 05.072   +02 37 31.39  .55258 1.5541 172.3 22.9  34d  17
2021 09 18 13  23 18 01.469   +02 38 48.05  .55266 1.5541 172.2 22.9  34d  16
2021 09 18 14  23 17 57.867   +02 40 04.68  .55273 1.5541 172.2 22.9  34d  16
2021 09 18 15  23 17 54.267   +02 41 21.28  .55281 1.5542 172.1 22.9  34d  16
2021 09 18 16  23 17 50.670   +02 42 37.84  .55289 1.5542 172.1 22.9  34d  16
2021 09 18 17  23 17 47.074   +02 43 54.37  .55297 1.5542 172.0 22.9  35d  16
2021 09 18 18  23 17 43.481   +02 45 10.87  .55305 1.5542 172.0 22.9  35d  16
2021 09 18 19  23 17 39.889   +02 46 27.33  .55313 1.5543 171.9 22.9  35d  16
2021 09 18 20  23 17 36.299   +02 47 43.76  .55321 1.5543 171.9 22.9  35d  15
2021 09 18 21  23 17 32.712   +02 49 00.16  .55329 1.5543 171.9 22.9  35d  15
2021 09 18 22  23 17 29.126   +02 50 16.52  .55337 1.5544 171.8 22.9  35d  15
2021 09 18 23  23 17 25.542   +02 51 32.85  .55345 1.5544 171.8 22.9  36d  15
2021 09 19 00  23 17 21.961   +02 52 49.15  .55353 1.5544 171.7 22.9  36d  15
2021 09 19 01  23 17 18.381   +02 54 05.42  .55361 1.5544 171.7 22.9  36d  15
2021 09 19 02  23 17 14.804   +02 55 21.65  .55370 1.5545 171.6 22.9  36d  14
2021 09 19 03  23 17 11.229   +02 56 37.84  .55378 1.5545 171.6 22.9  36d  14
2021 09 19 04  23 17 07.656   +02 57 54.00  .55386 1.5545 171.5 22.9  36d  14
2021 09 19 05  23 17 04.085   +02 59 10.13  .55395 1.5545 171.5 22.9  36d  14
2021 09 19 06  23 17 00.516   +03 00 26.23  .55403 1.5546 171.4 22.9  37d  14
2021 09 19 07  23 16 56.949   +03 01 42.29  .55411 1.5546 171.4 22.9  37d  14